Wind_Speed
12 12 9 9 9 8 6 3 3 3 3 2 3 4 3 3 2 3 3 4 6 5 5 5 4 3 2 2 3 3 4 3 1 4 5 6 8 9 11 13 15 16 17 17
14 10 7 7 7 7 4 3 2 3 3 3 4 5 6 10 8 6 5 6 6 6 5 4 4 5 5 3 3 2 3 3 3 5 6 8 11 12 13 16 18 21 21 21
11 9 7 6 5 2 0 1 2 2 2 4 5 3 4 5 6 6 4 4 3 1 1 1 2 2 1 3 3 4 4 5 6 7 10 11 12 15 17 19 20 22 24 27
5 6 2 3 1 2 7 3 4 5 5 4 4 4 6 6 9 7 4 5 6 5 5 4 5 5 5 6 7 8 9 10 11 12 12 13 14 15 19 23 25 27 31 29
8 4 3 2 1 2 5 4 4 1 5 2 4 6 14 7 7 9 12 12 11 10 9 9 9 10 9 11 12 14 15 16 17 18 20 19 18 20 21 21 22 27 30 31
6 6 7 4 4 5 8 5 3 4 7 2 6 1 6 6 5 7 6 7 10 14 16 15 14 14 14 15 17 20 21 22 21 21 21 22 22 23 23 25 26 28 29 31
7 13 12 6 6 4 5 8 5 5 3 6 6 4 10 10 9 8 10 15 16 15 17 20 21 21 21 21 21 22 24 25 24 23 25 26 26 26 26 27 28 29 31 34
5 6 3 5 7 6 5 4 1 2 3 8 8 5 7 13 13 12 15 16 18 17 15 18 24 26 26 27 26 25 24 24 26 26 26 28 29 29 29 30 31 31 33 33
2 4 2 4 3 4 9 4 10 5 13 5 10 9 11 17 16 14 18 16 14 16 18 19 23 26 27 28 31 31 30 31 30 29 31 33 34 34 33 33 33 32 32 34
4 1 8 6 6 8 7 8 6 9 8 8 9 13 8 17 14 13 12 13 15 20 21 25 28 30 34 33 34 36 37 37 35 33 34 35 37 38 37 37 38 38 34 35
5 4 13 9 11 14 13 11 12 11 13 11 11 8 23 16 15 14 16 16 18 22 24 27 29 32 36 38 37 39 41 41 39 38 38 40 41 41 41 42 43 41 38 38
9 9 8 12 19 17 13 14 12 12 12 15 17 14 16 13 14 16 15 18 21 23 25 27 30 32 36 39 40 42 43 44 43 42 42 42 44 44 44 46 46 43 41 39
12 9 8 10 17 20 16 17 15 15 18 17 17 14 19 21 17 15 17 17 20 22 25 29 32 35 39 42 44 45 47 49 48 46 44 43 44 45 45 45 45 44 43 40
16 12 14 13 18 23 20 18 18 16 17 17 17 20 18 23 25 27 26 28 28 29 30 32 35 37 41 43 46 48 51 52 52 52 51 49 48 48 48 46 45 44 43 39
14 17 18 17 21 22 18 19 21 22 22 22 19 23 23 27 30 30 31 30 34 36 38 39 38 39 42 45 48 50 52 55 56 58 57 57 53 51 49 47 46 45 43 39
18 18 20 17 20 22 19 18 20 23 23 23 26 29 30 30 33 35 37 39 38 40 39 37 38 41 44 46 48 52 55 57 59 61 61 60 56 50 47 45 44 44 42 37
18 19 22 21 20 24 23 19 20 23 26 29 31 34 35 35 37 39 40 41 43 38 36 38 41 45 46 49 51 54 57 58 60 60 59 55 52 47 45 43 42 41 38 36
23 22 26 27 24 26 29 24 24 25 29 31 35 37 38 40 40 40 41 39 39 39 40 43 46 49 51 54 56 57 59 58 58 57 54 49 50 47 42 38 39 39 35 33
23 25 29 28 27 29 28 30 26 28 33 37 36 38 41 40 39 36 39 38 40 43 44 46 50 53 53 53 55 56 56 54 53 51 50 46 47 45 40 36 33 35 33 34
24 24 28 30 31 30 34 30 32 36 38 42 43 42 43 42 38 38 40 43 45 46 47 48 50 51 52 54 55 54 54 55 52 50 48 46 47 46 42 36 33 32 34 33
28 26 26 28 32 33 37 36 39 42 43 45 46 46 43 42 42 45 45 46 48 48 48 47 48 50 50 52 54 53 57 52 50 48 46 45 42 43 40 36 33 31 30 30
29 29 28 32 33 37 39 40 41 43 45 45 45 44 44 44 47 48 48 49 49 48 47 49 50 52 50 48 49 53 50 49 50 46 42 41 40 39 39 34 32 29 29 28
29 29 30 34 37 40 41 42 44 44 44 44 43 44 46 47 48 49 50 48 46 47 49 50 51 51 47 46 51 53 47 39 46 41 43 41 40 40 36 28 29 29 26 26
33 33 37 37 39 39 38 42 41 41 42 44 46 47 48 48 49 48 48 47 48 48 47 48 48 48 50 49 50 52 53 47 45 43 43 40 36 35 29 26 25 27 25 24
37 39 38 38 39 37 39 39 40 43 44 46 47 48 47 47 48 48 47 47 47 47 48 48 47 48 47 48 44 44 45 44 43 41 39 40 35 39 29 30 29 22 26 24
38 37 38 38 38 37 39 40 42 44 45 46 45 45 46 46 45 46 46 44 45 47 46 45 46 46 46 44 42 42 42 43 41 39 38 37 30 30 33 28 23 21 22 25
Wind_Direction
106 102 113 87 96 103 93 72 50 357 353 62 88 70 73 188 0 33 41 70 87 91 96 89 73 95 59 30 47 47 13 8 332 298 316 343 339 327 317 305 295 297 291 292
102 106 116 115 137 123 92 95 57 11 28 56 72 89 93 93 82 75 63 71 87 102 114 105 80 80 67 64 57 26 21 26 341 323 314 316 317 317 318 309 301 295 296 291
110 127 110 108 124 121 77 179 81 109 64 27 56 59 34 40 54 47 25 0 9 95 163 50 8 347 345 326 309 312 320 322 323 325 321 321 317 315 315 320 312 310 300 294
130 140 123 70 29 114 291 157 113 98 104 255 81 303 349 342 350 359 13 341 318 303 297 301 297 295 310 312 305 304 307 309 310 314 316 318 315 315 314 317 311 311 302 300
187 213 264 297 25 148 170 146 143 78 348 15 310 83 278 332 2 0 352 340 330 319 291 272 281 286 299 306 311 314 310 312 313 313 314 314 318 314 312 314 306 314 310 295
210 260 272 283 142 132 133 119 77 35 42 154 275 86 242 290 314 330 345 336 324 309 302 298 291 291 299 302 305 309 302 300 300 299 303 306 308 307 308 309 310 308 310 306
227 248 268 248 151 158 148 64 353 5 8 251 242 266 296 308 313 303 315 327 324 315 295 290 295 297 300 301 303 303 297 294 298 303 305 305 305 306 304 304 307 309 307 311
189 320 209 171 168 184 203 169 237 313 268 284 274 264 278 277 283 291 302 309 317 313 310 299 294 294 296 298 298 294 289 287 291 295 298 300 300 300 299 299 304 307 307 308
133 242 223 215 216 233 278 301 268 302 312 319 269 305 313 282 283 287 291 296 301 304 303 299 294 290 292 294 292 291 292 293 298 304 305 302 301 299 299 299 302 303 302 304
211 249 269 287 292 279 280 283 308 302 288 293 286 307 264 276 278 278 279 282 284 293 297 299 299 299 299 297 296 294 294 295 300 301 300 299 300 299 297 299 301 303 301 302
238 242 285 304 274 279 292 299 288 273 275 269 283 273 269 288 281 264 273 272 276 281 289 292 293 294 293 294 297 296 297 302 305 305 304 302 301 299 298 297 299 299 298 299
267 248 262 259 281 289 289 282 280 274 274 290 286 299 293 297 289 287 282 282 286 292 294 295 296 297 297 298 300 300 301 302 303 303 301 300 300 299 295 294 295 295 295 297
267 250 263 298 317 303 291 289 287 288 290 296 294 301 300 314 315 312 308 303 298 297 297 296 294 291 292 294 295 298 301 305 306 306 305 304 302 299 296 295 293 293 293 292
265 237 242 251 261 263 289 295 292 286 288 287 298 302 314 313 315 314 313 310 305 300 296 293 292 290 291 296 298 301 302 303 304 305 305 304 303 302 298 295 292 291 291 288
266 254 253 247 264 269 276 281 284 289 290 298 306 303 306 308 309 306 304 304 304 303 302 301 299 297 297 298 299 298 299 301 303 305 305 304 303 300 296 293 290 289 287 284
260 262 263 259 272 280 271 272 274 276 292 293 299 303 300 303 302 304 306 305 302 300 297 296 295 295 295 295 295 296 298 301 303 304 304 304 304 302 298 293 287 284 283 280
279 272 272 269 270 276 285 269 275 278 286 293 297 298 301 302 301 303 302 300 299 298 296 295 293 294 295 294 295 296 299 301 302 302 302 303 302 300 297 293 289 284 282 279
284 279 278 278 279 285 282 286 281 281 281 286 289 294 297 299 300 300 297 300 298 297 296 293 293 293 294 295 297 298 300 301 301 301 300 299 296 296 298 297 292 287 278 272
287 284 282 281 281 285 288 282 287 289 289 291 291 294 295 297 298 297 299 299 296 295 294 292 293 295 297 298 297 298 300 300 298 296 292 292 295 297 296 294 291 286 281 270
283 274 274 280 286 288 285 293 296 295 298 299 303 303 302 303 302 300 302 300 298 297 297 297 298 298 298 299 301 300 298 295 295 291 292 295 295 293 293 289 287 287 280 272
289 278 278 279 282 286 287 296 296 299 298 299 300 302 301 300 300 300 300 298 299 299 299 299 299 299 300 298 298 298 294 294 289 291 294 294 291 292 291 290 286 283 276 270
279 277 280 282 281 284 293 295 296 294 295 297 297 298 299 299 300 300 301 301 302 301 301 300 300 300 299 299 298 299 293 293 294 294 292 292 291 290 286 284 282 278 272 268
274 274 277 279 286 289 293 293 293 295 297 297 297 297 298 299 299 299 300 300 300 300 302 301 302 302 298 296 296 296 284 293 293 291 293 292 291 290 276 276 279 274 266 261
279 281 284 288 287 289 291 291 296 295 296 297 298 299 299 299 299 299 299 301 302 303 303 303 300 295 295 293 291 294 298 297 294 291 291 297 295 295 307 283 275 274 262 255
280 286 288 288 288 294 291 294 295 295 297 297 297 298 298 298 299 300 301 304 305 305 305 303 301 302 299 298 295 298 297 296 299 291 285 296 286 287 267 279 270 262 256 248
284 286 288 287 290 290 291 293 295 296 296 295 295 295 296 298 298 299 302 302 304 305 302 300 302 301 302 303 300 299 297 296 296 291 284 289 282 281 289 280 244 248 244 247
Height
5939 5940 5943 5943 5943 5943 5942 5943 5943 5942 5941 5940 5939 5939 5937 5937 5936 5936 5935 5934 5934 5934 5934 5934 5933 5933 5933 5933 5933 5932 5931 5930 5929 5929 5928 5927 5926 5925 5924 5922 5921 5920 5919 5917
5941 5942 5943 5944 5945 5945 5945 5946 5946 5944 5942 5942 5941 5941 5939 5939 5939 5938 5937 5936 5936 5935 5935 5934 5934 5934 5934 5933 5933 5933 5932 5931 5930 5929 5928 5926 5924 5923 5921 5920 5918 5916 5914 5913
5940 5942 5943 5945 5946 5947 5947 5947 5947 5946 5945 5945 5945 5943 5942 5941 5941 5940 5939 5939 5938 5937 5936 5935 5935 5935 5935 5935 5934 5933 5932 5931 5930 5929 5927 5925 5923 5920 5918 5915 5913 5911 5909 5906
5941 5942 5943 5944 5945 5946 5952 5947 5947 5947 5948 5952 5949 5950 5945 5943 5942 5941 5941 5940 5940 5939 5938 5937 5936 5936 5935 5935 5934 5932 5931 5929 5927 5926 5924 5922 5920 5917 5914 5911 5907 5904 5902 5900
5943 5942 5943 5944 5944 5944 5945 5946 5947 5948 5948 5949 5948 5953 5946 5944 5944 5942 5941 5940 5940 5939 5939 5937 5936 5935 5934 5933 5932 5931 5929 5927 5925 5922 5919 5917 5915 5912 5909 5906 5905 5900 5897 5893
5942 5942 5943 5943 5943 5944 5946 5947 5949 5950 5950 5952 5949 5951 5944 5945 5945 5944 5944 5943 5941 5939 5937 5936 5935 5934 5933 5932 5930 5928 5926 5924 5922 5920 5917 5914 5911 5908 5905 5900 5898 5894 5891 5887
5943 5943 5942 5943 5944 5946 5947 5951 5957 5956 5956 5952 5949 5949 5942 5943 5944 5945 5944 5941 5939 5938 5935 5933 5932 5931 5929 5928 5927 5925 5923 5921 5918 5915 5912 5910 5906 5903 5901 5896 5892 5888 5883 5879
5945 5943 5942 5944 5945 5946 5948 5950 5955 5954 5956 5954 5948 5950 5947 5944 5942 5941 5940 5939 5937 5935 5932 5930 5928 5927 5925 5924 5923 5921 5920 5917 5914 5911 5908 5905 5902 5899 5895 5891 5887 5882 5876 5872
5944 5944 5943 5943 5944 5946 5947 5949 5948 5950 5948 5949 5950 5947 5945 5940 5939 5938 5937 5936 5933 5931 5929 5927 5924 5922 5921 5919 5917 5915 5912 5909 5907 5903 5900 5896 5894 5891 5887 5883 5879 5875 5870 5864
5942 5945 5942 5943 5944 5944 5944 5945 5947 5949 5947 5948 5948 5944 5945 5937 5936 5934 5933 5932 5930 5927 5925 5922 5919 5916 5913 5911 5909 5906 5903 5901 5899 5896 5893 5890 5886 5882 5878 5874 5870 5866 5861 5857
5940 5944 5944 5943 5941 5941 5942 5943 5940 5941 5941 5942 5944 5946 5937 5933 5931 5930 5928 5927 5925 5922 5920 5917 5914 5911 5907 5903 5901 5898 5894 5892 5890 5888 5884 5880 5876 5872 5867 5863 5860 5856 5851 5846
5940 5943 5943 5941 5938 5938 5938 5937 5938 5938 5939 5936 5934 5935 5930 5928 5925 5923 5922 5920 5918 5916 5913 5910 5906 5903 5899 5895 5892 5889 5886 5884 5881 5879 5875 5870 5865 5861 5856 5852 5848 5843 5840 5835
5938 5940 5942 5941 5938 5935 5934 5933 5933 5932 5931 5931 5930 5930 5925 5921 5920 5919 5917 5915 5912 5910 5906 5902 5899 5895 5891 5887 5883 5880 5876 5872 5868 5865 5862 5859 5854 5849 5845 5840 5836 5832 5828 5824
5934 5936 5936 5939 5936 5931 5930 5929 5927 5928 5927 5926 5926 5923 5921 5917 5915 5912 5910 5907 5904 5902 5899 5895 5891 5887 5882 5877 5873 5869 5865 5860 5856 5852 5849 5846 5842 5836 5831 5827 5823 5819 5816 5813
5929 5930 5930 5930 5928 5927 5927 5925 5923 5922 5921 5919 5919 5917 5915 5911 5908 5905 5902 5900 5896 5892 5888 5884 5880 5876 5873 5868 5864 5859 5853 5848 5843 5839 5834 5830 5827 5822 5817 5813 5810 5806 5803 5801
5924 5924 5924 5925 5923 5921 5922 5921 5919 5918 5917 5914 5913 5911 5908 5905 5901 5897 5894 5889 5887 5883 5879 5876 5872 5868 5864 5859 5854 5848 5842 5837 5832 5825 5819 5814 5809 5806 5802 5798 5795 5792 5790 5789
5920 5919 5918 5918 5917 5915 5916 5916 5915 5914 5912 5909 5907 5903 5900 5897 5894 5889 5885 5881 5876 5874 5870 5866 5862 5857 5852 5848 5842 5837 5831 5825 5818 5811 5804 5799 5793 5790 5786 5783 5780 5778 5777 5776
5915 5914 5912 5911 5911 5911 5908 5909 5909 5908 5905 5903 5899 5896 5892 5888 5885 5881 5875 5872 5867 5863 5860 5855 5850 5845 5841 5835 5830 5824 5817 5811 5804 5796 5790 5786 5780 5776 5773 5770 5767 5764 5764 5762
5911 5909 5906 5905 5905 5905 5904 5899 5902 5900 5896 5892 5890 5887 5883 5879 5876 5872 5866 5863 5858 5853 5849 5845 5839 5833 5828 5823 5816 5810 5804 5796 5790 5783 5777 5774 5767 5764 5761 5758 5755 5753 5751 5751
5905 5903 5901 5900 5897 5897 5892 5893 5892 5889 5886 5880 5877 5874 5870 5866 5863 5860 5855 5850 5846 5842 5837 5832 5825 5820 5814 5807 5801 5795 5788 5782 5775 5769 5765 5761 5756 5751 5749 5746 5743 5741 5740 5739
5898 5895 5894 5893 5890 5889 5883 5885 5881 5878 5877 5871 5866 5862 5858 5855 5852 5847 5843 5838 5832 5827 5822 5817 5811 5805 5800 5793 5786 5780 5772 5767 5760 5755 5752 5748 5744 5741 5738 5736 5734 5731 5729 5729
5891 5889 5888 5886 5883 5882 5877 5874 5873 5868 5863 5859 5855 5851 5847 5844 5839 5834 5829 5823 5818 5813 5808 5802 5797 5791 5785 5777 5770 5763 5757 5750 5745 5742 5739 5737 5734 5730 5726 5724 5723 5721 5720 5720
5882 5882 5881 5879 5875 5871 5868 5864 5859 5856 5852 5848 5845 5841 5835 5831 5826 5820 5815 5810 5805 5800 5794 5788 5781 5775 5769 5763 5755 5747 5744 5737 5733 5731 5727 5724 5721 5716 5701 5711 5712 5712 5711 5711
5872 5872 5870 5868 5864 5861 5858 5852 5850 5846 5842 5837 5832 5827 5822 5818 5812 5807 5802 5797 5793 5787 5781 5775 5768 5761 5755 5749 5743 5736 5730 5725 5723 5721 5716 5715 5711 5707 5703 5702 5702 5704 5703 5703
5864 5862 5860 5856 5852 5851 5845 5842 5839 5834 5829 5825 5820 5815 5810 5804 5799 5794 5789 5785 5779 5773 5767 5760 5754 5748 5741 5735 5730 5726 5720 5714 5712 5708 5706 5703 5698 5692 5684 5689 5694 5695 5696 5696
5854 5852 5848 5844 5842 5839 5836 5831 5827 5822 5818 5813 5808 5803 5798 5793 5788 5783 5779 5773 5767 5761 5754 5749 5743 5736 5730 5725 5720 5714 5709 5703 5700 5696 5694 5691 5688 5685 5681 5680 5682 5685 5687 5690